When you browse on this site, cookies collect data to enhance your experience and personalize the content and advertising you see.
Visit our Privacy Policy to learn more. By continuing to use the site, you agree to this use of cookies and data.
EN

Hourly Weather Djibouti

Today, 7 July, Tuesday

Time Temperature Precipitation Wind Pressure Humidity
00:00 +36°C° 0 mm 2 mps 751 mmHg 40%
01:00 +36°C° 0 mm 2 mps 750 mmHg 41%
02:00 +35°C° 0 mm 2 mps 750 mmHg 41%
03:00 +35°C° 0 mm 2 mps 749 mmHg 40%
04:00 +34°C° 0 mm 1 mps 750 mmHg 40%
05:00 +34°C° 0 mm 1 mps 750 mmHg 41%
06:00 +33°C° 0 mm 1 mps 751 mmHg 42%
07:00 +36°C° 0 mm 2 mps 751 mmHg 38%
08:00 +38°C° 0 mm 2 mps 751 mmHg 33%
09:00 +40°C° 0 mm 3 mps 751 mmHg 29%
10:00 +42°C° 0 mm 3 mps 751 mmHg 27%
11:00 +43°C° 0 mm 4 mps 751 mmHg 25%
12:00 +44°C° 0 mm 4 mps 751 mmHg 23%
13:00 +44°C° 0 mm 4 mps 750 mmHg 24%
14:00 +44°C° 0 mm 4 mps 749 mmHg 25%
15:00 +46°C° 0 mm 5 mps 748 mmHg 25%
16:00 +43°C° 0 mm 5 mps 748 mmHg 32%
17:00 +41°C° 0 mm 5 mps 749 mmHg 39%
18:00 +39°C° 0 mm 5 mps 749 mmHg 46%
19:00 +37°C° 0 mm 4 mps 749 mmHg 48%
20:00 +37°C° 0 mm 4 mps 750 mmHg 50%
21:00 +37°C° 0 mm 3 mps 750 mmHg 52%
22:00 +37°C° 0 mm 3 mps 750 mmHg 50%
23:00 +37°C° 0 mm 2 mps 751 mmHg 49%

Tomorrow, 8 July, Wednesday

Time Temperature Precipitation Wind Pressure Humidity
00:00 +37°C° 0 mm 2 mps 751 mmHg 48%
01:00 +36°C° 0 mm 1 mps 751 mmHg 48%
02:00 +35°C° 0 mm 1 mps 750 mmHg 49%
03:00 +33°C° 0 mm 0 mps 750 mmHg 49%
04:00 +35°C° 0 mm 1 mps 751 mmHg 49%
05:00 +35°C° 0 mm 1 mps 751 mmHg 49%
06:00 +34°C° 0 mm 1 mps 752 mmHg 49%
07:00 +37°C° 0 mm 2 mps 752 mmHg 42%
08:00 +39°C° 0 mm 2 mps 752 mmHg 35%
09:00 +40°C° 0 mm 3 mps 752 mmHg 29%
10:00 +41°C° 0 mm 2 mps 752 mmHg 25%
11:00 +43°C° 0 mm 2 mps 752 mmHg 22%
12:00 +45°C° 0 mm 2 mps 752 mmHg 19%
13:00 +45°C° 0 mm 3 mps 751 mmHg 19%
14:00 +46°C° 0 mm 5 mps 750 mmHg 20%
15:00 +47°C° 0 mm 6 mps 749 mmHg 20%
16:00 +45°C° 0 mm 5 mps 749 mmHg 24%
17:00 +42°C° 0 mm 5 mps 749 mmHg 28%
18:00 +41°C° 0 mm 4 mps 749 mmHg 33%
19:00 +41°C° 0 mm 5 mps 750 mmHg 33%
20:00 +41°C° 0 mm 6 mps 751 mmHg 34%
21:00 +40°C° 0 mm 7 mps 751 mmHg 34%
22:00 +40°C° 0 mm 5 mps 751 mmHg 36%
23:00 +38°C° 0 mm 4 mps 751 mmHg 37%

Day after tomorrow, 9 July, Thursday

Time Temperature Precipitation Wind Pressure Humidity
00:00 +38°C° 0 mm 2 mps 751 mmHg 39%
01:00 +38°C° 0 mm 2 mps 751 mmHg 39%
02:00 +37°C° 0 mm 2 mps 751 mmHg 40%
03:00 +37°C° 0 mm 2 mps 751 mmHg 40%
04:00 +37°C° 0.1 mm 2 mps 751 mmHg 39%
05:00 +37°C° 0.1 mm 3 mps 751 mmHg 38%
06:00 +36°C° 0.1 mm 4 mps 752 mmHg 36%
07:00 +38°C° 0 mm 4 mps 752 mmHg 32%
08:00 +41°C° 0 mm 4 mps 752 mmHg 28%
09:00 +43°C° 0 mm 5 mps 752 mmHg 24%
10:00 +45°C° 0 mm 5 mps 752 mmHg 21%
11:00 +46°C° 0 mm 5 mps 751 mmHg 18%
12:00 +47°C° 0 mm 5 mps 751 mmHg 15%
13:00 +48°C° 0 mm 5 mps 750 mmHg 15%
14:00 +48°C° 0 mm 5 mps 749 mmHg 15%
15:00 +49°C° 0 mm 5 mps 749 mmHg 15%
16:00 +47°C° 0 mm 5 mps 749 mmHg 19%
17:00 +45°C° 0 mm 5 mps 749 mmHg 23%
18:00 +42°C° 0 mm 4 mps 749 mmHg 28%
19:00 +42°C° 0 mm 4 mps 749 mmHg 26%
20:00 +42°C° 0 mm 4 mps 750 mmHg 24%
21:00 +41°C° 0 mm 4 mps 750 mmHg 23%
22:00 +41°C° 0 mm 4 mps 750 mmHg 23%
23:00 +40°C° 0 mm 3 mps 750 mmHg 23%

10 July, Friday

Time Temperature Precipitation Wind Pressure Humidity
00:00 +39°C° 0 mm 3 mps 750 mmHg 23%
01:00 +39°C° 0 mm 3 mps 750 mmHg 22%
02:00 +38°C° 0 mm 3 mps 750 mmHg 22%
03:00 +38°C° 0 mm 4 mps 749 mmHg 21%
04:00 +38°C° 0 mm 4 mps 750 mmHg 25%
05:00 +37°C° 0 mm 4 mps 750 mmHg 29%
06:00 +37°C° 0 mm 5 mps 751 mmHg 33%
07:00 +39°C° 0 mm 6 mps 751 mmHg 31%
08:00 +41°C° 0 mm 8 mps 751 mmHg 29%
09:00 +43°C° 0 mm 9 mps 752 mmHg 27%
10:00 +45°C° 0 mm 9 mps 751 mmHg 23%
11:00 +46°C° 0 mm 8 mps 751 mmHg 20%
12:00 +47°C° 0 mm 7 mps 750 mmHg 16%
13:00 +49°C° 0 mm 7 mps 750 mmHg 15%
14:00 +48°C° 0 mm 6 mps 749 mmHg 14%
15:00 +49°C° 0 mm 5 mps 748 mmHg 13%
16:00 +49°C° 0 mm 7 mps 748 mmHg 14%
17:00 +48°C° 0 mm 8 mps 748 mmHg 14%
18:00 +47°C° 0 mm 10 mps 748 mmHg 15%
19:00 +45°C° 0 mm 9 mps 749 mmHg 17%
20:00 +43°C° 0 mm 8 mps 749 mmHg 20%
21:00 +41°C° 0 mm 7 mps 750 mmHg 22%
22:00 +41°C° 0 mm 6 mps 750 mmHg 24%
23:00 +40°C° 0 mm 6 mps 750 mmHg 25%

11 July, Saturday

Time Temperature Precipitation Wind Pressure Humidity
00:00 +40°C° 0 mm 6 mps 750 mmHg 27%
01:00 +40°C° 0 mm 5 mps 749 mmHg 25%
02:00 +40°C° 0 mm 5 mps 749 mmHg 24%
03:00 +39°C° 0 mm 5 mps 749 mmHg 22%
04:00 +39°C° 0 mm 5 mps 749 mmHg 23%
05:00 +39°C° 0 mm 5 mps 750 mmHg 24%
06:00 +37°C° 0 mm 5 mps 750 mmHg 26%
07:00 +40°C° 0 mm 6 mps 750 mmHg 24%
08:00 +42°C° 0 mm 6 mps 751 mmHg 22%
09:00 +45°C° 0 mm 6 mps 751 mmHg 21%
10:00 +46°C° 0 mm 6 mps 751 mmHg 20%
11:00 +47°C° 0 mm 7 mps 750 mmHg 19%
12:00 +49°C° 0 mm 7 mps 750 mmHg 18%
13:00 +49°C° 0 mm 9 mps 749 mmHg 17%
14:00 +49°C° 0 mm 10 mps 749 mmHg 16%
15:00 +51°C° 0 mm 11 mps 748 mmHg 15%
16:00 +49°C° 0 mm 11 mps 748 mmHg 17%
17:00 +48°C° 0 mm 10 mps 748 mmHg 18%
18:00 +47°C° 0 mm 10 mps 748 mmHg 20%
19:00 +44°C° 0 mm 9 mps 748 mmHg 23%
20:00 +43°C° 0 mm 8 mps 749 mmHg 26%
21:00 +41°C° 0 mm 7 mps 749 mmHg 29%
22:00 +41°C° 0 mm 6 mps 749 mmHg 29%
23:00 +41°C° 0 mm 6 mps 749 mmHg 29%

12 July, Sunday

Time Temperature Precipitation Wind Pressure Humidity
00:00 +40°C° 0 mm 5 mps 749 mmHg 28%
01:00 +40°C° 0 mm 5 mps 749 mmHg 28%
02:00 +40°C° 0 mm 5 mps 749 mmHg 27%
03:00 +40°C° 0 mm 4 mps 748 mmHg 27%
04:00 +40°C° 0 mm 4 mps 749 mmHg 27%
05:00 +40°C° 0 mm 4 mps 749 mmHg 27%
06:00 +40°C° 0 mm 4 mps 749 mmHg 27%
07:00 +41°C° 0 mm 4 mps 749 mmHg 25%
08:00 +43°C° 0 mm 4 mps 750 mmHg 23%
09:00 +45°C° 0 mm 5 mps 750 mmHg 21%
10:00 +46°C° 0 mm 6 mps 750 mmHg 20%
11:00 +47°C° 0 mm 6 mps 749 mmHg 19%
12:00 +49°C° 0 mm 7 mps 749 mmHg 18%
13:00 +50°C° 0 mm 7 mps 748 mmHg 17%
14:00 +50°C° 0 mm 7 mps 748 mmHg 16%
15:00 +50°C° 0 mm 7 mps 747 mmHg 15%
16:00 +49°C° 0 mm 8 mps 747 mmHg 16%
17:00 +48°C° 0 mm 8 mps 747 mmHg 16%
18:00 +47°C° 0 mm 9 mps 747 mmHg 17%
19:00 +45°C° 0 mm 7 mps 748 mmHg 20%
20:00 +43°C° 0 mm 5 mps 748 mmHg 22%
21:00 +42°C° 0 mm 4 mps 749 mmHg 25%
22:00 +42°C° 0 mm 4 mps 749 mmHg 26%
23:00 +41°C° 0 mm 5 mps 749 mmHg 28%
Show more